Showing default

HYPSO-2, 60531

Orbit data source: Space-Track

HYPSO-2, 60531 is a payload satellite owned by NTNU (NO) in SSO that was launched on Fri, 16 Aug 2024 UTC via an FALCON 9 launch vehicle from the Air Force Western Test Range (AFWTR). Payload-class satellites include a variety of spacecraft equipped with specific instruments for various scientific and technological missions. These include communications satellites like Starlink; space stations such as the ISS; scientific satellites like the Hubble; Earth observation satellites from companies like Planet Labs, Umbra, and HawkEye 360; GPS; miniature CubeSats for education and research; and military/defense satellites.

Loading next visibility...
Identifier
60531, 2024-149BR
Orbit
SSO
Country
Flag of NONO / NOR
Related business
Manufacturer
NanoAvionics
Mission
Operational Civil Imaging
Bus & Motor
CUBESAT 6U, Unknown motor
Mass
~10 kg wet, ~10 kg dry
Launch date (UTC)
2024-08-16 (2 years ago)
Launch vehicle
FALCON 9
Launch site
Air Force Western Test Range (AFWTR)
Object type
Payload
Rocket body
Debris
Shape & HBR
Box + 2 Pan, 0.1 m
Radar Cross Section
0.080 m², Medium (>0.1 m² and < 1m²)

Expand to show TLE details & history
Last TLE update: 11 hours ago

TLE from 11 hours ago
0 HYPSO-2
1 60531U 24149BR  26175.94504404  .00002377  00000-0  20196-3 0  9996
2 60531  97.6810 252.0919 0000682 126.4168 233.7118 14.98820099101210
Epoch: 2026-06-24T22:40Z
TLE epoch observation values (Epoch: 2026-06-24T22:40:51.805Z)
Latitude
0.00002°
Longitude
-1.21894°
Altitude
573.875 km
Speed
7.574 km/s
True Right ascension
16h 48m 22s
True Declination
0° 00' 00"
Sunlit
Object was in full shadow at epoch
Visualization orbit readout
Latitude
Unknown
Longitude
Unknown
Altitude
Unknown
Speed
Unknown
Apparent Right ascension
Unknown
Apparent Declination
Unknown
Sunlit
N/A
Visualization observer readout
Local Sidereal Time
20:56:46
Azimuth
Unknown
Elevation
Unknown
Doppler factor
Unknown
Orbital elements
Apogee altitude
568.02 km
Perigee altitude
567.073 km
Semi-major axis
6,945.684 km
Eccentricity
0.00007
Inclination
97.681°
RAAN
252.0919°
Arg. of periapsis
126.4168°
True anomaly
233.7055°
Mean anomaly
233.7118°
Eccentric anomaly
233.70865°
Mean motion
3.74948 °/min
Orbital period
96.01 mins
BSTAR
0.00020196
Loading maneuver chart data...
Computing Atmospheric mass density...

Documentation

Showing up to 5 results
|